Current Weather Conditions: station 62153

sailwx.info

Wind from 210 at 24 knots

Wave height 2.4 meters (7 feet), 6 second period

Visibility: greater than 10.8 NM

Last reported at 2020-Jan-26 03:00 UTC.
Time now 2020-Jan-26 03:47 UTC

Location: N 57°18' E 002°00'.
View on Google Maps.

See reports from other nearby stations

  
Tides and Currents Weather Stations Pressure Air Temp Water Temp Dewpoint Dewpoint Depression Visibility Wind Speed Wind Dir Waves Ship Positions
date/time (UTC)wind fromknots sea level pressurealtimeterstation pressurevisibilityair tempwater tempwave heightnotes
2020-Jan-26 03:00 210 24 10.8 2.4
2020-Jan-26 02:00 220 24 10.8 2.4
2020-Jan-26 01:00 220 25 10.8 2.4
2020-Jan-26 00:00 210 24 10.8 2.3
2020-Jan-25 23:00 220 24 10.8 2.4
2020-Jan-25 22:00 210 20 10.8 2.6
2020-Jan-25 21:00 230 24 27.0 2.6
2020-Jan-25 20:00 230 21 10.8 2.5
2020-Jan-25 19:00 230 22 10.8 2.6
2020-Jan-25 18:00 230 25 10.8 2.5
2020-Jan-25 17:00 240 20 10.8 2.6
2020-Jan-25 16:00 230 24 10.8 2.6
2020-Jan-25 15:00 220 22 10.8 2.6
2020-Jan-25 14:00 230 24 10.8 2.4
2020-Jan-25 13:00 220 20 10.8 2.3
2020-Jan-25 12:00 230 24 10.8 2.2
2020-Jan-25 11:00 230 28 10.8 2.0
2020-Jan-25 10:00 220 27 10.8 1.8
2020-Jan-25 09:00 210 22 10.8 1.8
2020-Jan-25 08:00 210 15 10.8 1.8
2020-Jan-25 07:00 210 18 10.8 1.8
2020-Jan-25 06:00 210 13 10.8 1.9
2020-Jan-25 05:00 230 14 27.0 1.8
2020-Jan-25 04:00 220 14 10.8 1.9
2020-Jan-25 03:00 220 15 10.8 1.8
2020-Jan-25 02:00 210 14 10.8 1.8
2020-Jan-25 01:00 210 14 27.0 1.9
2020-Jan-25 00:00 230 12 27.0 2.0
2020-Jan-24 23:00 240 8 27.0 1.8
2020-Jan-24 22:00 230 4 27.0 2.0
2020-Jan-24 21:00 250 4 27.0 1.9
2020-Jan-24 20:00 270 4 27.0
2020-Jan-24 19:00 290 2 27.0 2.0
2020-Jan-24 18:00 280 4 27.0 2.3
2020-Jan-24 17:00 280 2 27.0 2.2
2020-Jan-24 16:00 270 4 27.0 2.2
2020-Jan-24 15:00 290 6 27.0 2.3
2020-Jan-24 14:00 290 5 27.0 2.3
2020-Jan-24 13:00 280 4 27.0 2.2
2020-Jan-24 12:00 280 2 27.0 2.0
2020-Jan-24 11:00 300 6 27.0 2.0
2020-Jan-24 10:00 280 4 27.0 2.0
2020-Jan-24 09:00 300 6 27.0 1.8
2020-Jan-24 08:00 290 4 27.0 1.6
2020-Jan-24 07:00 280 5 27.0 1.7
2020-Jan-24 06:00 280 2 2.2 1.6
2020-Jan-24 05:00 270 4 10.8 1.7
2020-Jan-24 04:00 260 4 5.4 1.7
2020-Jan-24 03:00 260 5 5.4 1.6